This is the latest recevied weather packets stored in our database for station/object DG9BJA-13. If no packets are shown the sender has not sent any weather packets the latest 10 day(s).
| Time | Temp. | Humidity | Pressure | Rain* | Wind** | Luminosity | Snow |
|---|---|---|---|---|---|---|---|
| 1777929976 | 12.78° C | 92% | 1013.1 hPa | 3.56 mm | - | 0 W/m² | - |
| 1777929376 | 12.78° C | 92% | 1013.1 hPa | 2.79 mm | - | 0 W/m² | - |
| 1777928776 | 12.78° C | 92% | 1013.1 hPa | 2.03 mm | - | 0 W/m² | - |
| 1777928177 | 13.33° C | 92% | 1013.1 hPa | 1.27 mm | - | 0 W/m² | - |
| 1777927576 | 13.33° C | 92% | 1013.1 hPa | 0.51 mm | - | 0 W/m² | - |
| 1777926976 | 13.33° C | 92% | 1013.1 hPa | 0.25 mm | - | 0 W/m² | - |
| 1777926377 | 13.33° C | 91% | 1013.1 hPa | 0.25 mm | - | 0 W/m² | - |
| 1777925776 | 13.33° C | 91% | 1013.1 hPa | 0 mm | - | 0 W/m² | - |
| 1777925176 | 13.89° C | 90% | 1012.9 hPa | 0 mm | - | 0 W/m² | - |
| 1777924576 | 13.89° C | 90% | 1012.7 hPa | 0 mm | - | 0 W/m² | - |
| 1777923976 | 13.89° C | 89% | 1012.7 hPa | 0 mm | - | 0 W/m² | - |
| 1777923376 | 14.44° C | 87% | 1012.9 hPa | 0 mm | - | 0 W/m² | - |
| 1777922776 | 15° C | 85% | 1012.7 hPa | 0 mm | - | 0 W/m² | - |
| 1777922176 | 15.56° C | 84% | 1012.7 hPa | 0 mm | - | 0 W/m² | - |
| 1777921576 | 15.56° C | 83% | 1012.6 hPa | 0 mm | - | 0 W/m² | - |
| 1777920976 | 15.56° C | 83% | 1012.6 hPa | 0 mm | - | 0 W/m² | - |
| 1777920376 | 16.11° C | 82% | 1012.6 hPa | 0 mm | - | 0 W/m² | - |
| 1777919776 | 16.11° C | 81% | 1012.5 hPa | 0 mm | - | 0 W/m² | - |
| 1777919176 | 16.67° C | 81% | 1012.2 hPa | 0 mm | - | 0 W/m² | - |
| 1777918576 | 16.67° C | 81% | 1012.2 hPa | 0 mm | - | 7 W/m² | - |
| 1777917976 | 17.22° C | 80% | 1012.2 hPa | 0 mm | - | 19 W/m² | - |
| 1777917376 | 17.22° C | 79% | 1012.1 hPa | 0 mm | - | 28 W/m² | - |
| 1777916776 | 17.78° C | 77% | 1012.1 hPa | 0 mm | - | 44 W/m² | - |
| 1777916175 | 17.78° C | 76% | 1012.1 hPa | 0 mm | - | 63 W/m² | - |
| 1777915576 | 17.78° C | 76% | 1012.1 hPa | 0 mm | - | 77 W/m² | - |
* Rain latest hour (hover to see other rain measurements)
** Current wind speed in m/s (hover to see current wind gust speed)